Regional Weather Roundup
Issued by NWS

Home | Current Version | Previous Version | Text Only | Print | Product List | Glossary On
Versions: 1 2 3 4 5 6 7 8 9 10 11 12 13 14 15 16 17 18 19 20 21 22 23 24 25 26 27 28 29 30 31 32 33 34 35 36 37 38 39 40 41 42 43 44 45 46 47 48 49 50
000
ASUS44 KBMX 221310
RWRAL

ALABAMA REGIONAL WEATHER ROUNDUP
NATIONAL WEATHER SERVICE BIRMINGHAM AL
800 AM CDT TUE JUL 22 2014

NOTE: "FAIR" INDICATES FEW OR NO CLOUDS BELOW 12,000 FEET
WITH NO SIGNIFICANT WEATHER AND/OR OBSTRUCTIONS TO VISIBILITY.

THE REMARK "TC" DENOTES TEMPERATURE IN DEGREES CELSIUS.

ALZ001>011-014-016>018-020-221400-
NORTH ALABAMA

CITY           SKY/WX    TMP DP  RH WIND       PRES   REMARKS
MUSCLE SHOALS  SUNNY     75  72  90 SE3       30.13R
HUNTSVILLE     CLOUDY    76  72  87 E6        30.12R
DECATUR        CLOUDY    75  73  93 E3        30.13R
HALEYVILLE     FAIR      72  72 100 CALM      30.15R FOG
GADSDEN        PTSUNNY   77  72  83 NE7       30.13R
$$

ALZ012-013-022-023-030>036-040>044-221400-
WEST CENTRAL ALABAMA

CITY           SKY/WX    TMP DP  RH WIND       PRES   REMARKS
TUSCALOOSA     CLOUDY    77  73  88 E7        30.09R
$$

ALZ015-024>027-033>036-040>044-221400-
CENTRAL ALABAMA

CITY           SKY/WX    TMP DP  RH WIND       PRES   REMARKS
BIRMINGHAM     CLOUDY    76  71  85 E7        30.14R
MONTGOMERY     CLOUDY    76  73  91 E7        30.10R
SHELBY CO ARPT CLOUDY    75  73  93 NE3       30.12R
MAXWELL AFB    LGT RAIN  76  76 100 SE9       30.10R
GREENVILLE     CLOUDY    75  72  90 SE5       30.09R FOG
$$

ALZ019-021-028-029-037-038-045>048-221400-
EAST CENTRAL ALABAMA

CITY           SKY/WX    TMP DP  RH WIND       PRES   REMARKS
ANNISTON       CLOUDY    74  71  91 E7        30.13S
ALEXANDER CITY RAIN      76  71  85 E3        30.14R
AUBURN         CLOUDY    72  68  88 E7        30.17R
$$

ALZ051>064-221400-
SOUTHWEST ALABAMA

CITY           SKY/WX    TMP DP  RH WIND       PRES   REMARKS
MOBILE         MOSUNNY   75  75 100 CALM      30.04R FOG
BROOKLEY FIELD MOSUNNY   80  77  90 CALM      30.04R FOG
EVERGREEN      CLOUDY    79  74  84 E6        30.08R
$$

ALZ049-050-065>069-221400-
SOUTHEAST ALABAMA

CITY           SKY/WX    TMP DP  RH WIND       PRES   REMARKS
DOTHAN         CLOUDY    75  73  93 E5        30.13R
OZARK          MOSUNNY   76  73  92 VRB3      30.09S
TROY           PTSUNNY   75  72  90 E5        30.11S
EUFAULA        CLOUDY    75  72  90 NE5       30.11R
$$


USA.gov is the U.S. government's official web portal to all federal, state and local government web resources and services.